TimeEST,TemperatureF,Dew PointF,Humidity,Sea Level PressureIn,VisibilityMPH,Wind Direction,Wind SpeedMPH,Gust SpeedMPH,PrecipitationIn,Events,Conditions,WindDirDegrees,DateUTC
12:10 AM,44.6,39.2,81,29.97,10.0,NE,3.5,-,N/A,,Overcast,40,2013-02-23 05:10:00
12:51 AM,43.0,37.9,82,29.96,10.0,Calm,Calm,-,N/A,,Overcast,0,2013-02-23 05:51:00
1:51 AM,44.1,39.0,82,29.96,9.0,Calm,Calm,-,N/A,,Overcast,0,2013-02-23 06:51:00
2:51 AM,43.0,39.0,86,29.95,9.0,Calm,Calm,-,N/A,,Overcast,0,2013-02-23 07:51:00
3:51 AM,44.1,39.0,82,29.94,9.0,Calm,Calm,-,N/A,,Overcast,0,2013-02-23 08:51:00
4:51 AM,43.0,39.0,86,29.94,9.0,Calm,Calm,-,N/A,,Overcast,0,2013-02-23 09:51:00
5:51 AM,43.0,39.0,86,29.94,8.0,Calm,Calm,-,N/A,,Overcast,0,2013-02-23 10:51:00
6:43 AM,42.8,37.4,81,29.94,8.0,Calm,Calm,-,N/A,,Overcast,0,2013-02-23 11:43:00
6:51 AM,42.1,39.0,89,29.94,8.0,Calm,Calm,-,N/A,,Overcast,0,2013-02-23 11:51:00
7:02 AM,42.8,39.2,87,29.94,7.0,Calm,Calm,-,N/A,,Overcast,0,2013-02-23 12:02:00
7:51 AM,43.0,39.0,86,29.95,6.0,Calm,Calm,-,N/A,,Overcast,0,2013-02-23 12:51:00
8:51 AM,44.1,39.0,82,29.96,6.0,Variable,5.8,-,N/A,,Haze,0,2013-02-23 13:51:00
9:51 AM,43.0,37.0,80,29.96,10.0,WNW,5.8,-,N/A,,Overcast,300,2013-02-23 14:51:00
10:28 AM,44.6,37.4,76,29.96,10.0,West,3.5,-,N/A,,Overcast,270,2013-02-23 15:28:00
10:51 AM,45.0,36.0,71,29.96,10.0,Variable,5.8,-,N/A,,Overcast,0,2013-02-23 15:51:00
11:51 AM,46.0,37.0,71,29.95,10.0,Variable,5.8,-,N/A,,Overcast,0,2013-02-23 16:51:00
12:51 PM,48.0,35.1,61,29.93,10.0,SW,8.1,-,N/A,,Mostly Cloudy,230,2013-02-23 17:51:00
1:15 PM,48.2,35.6,62,29.91,10.0,Variable,6.9,-,N/A,,Partly Cloudy,0,2013-02-23 18:15:00
1:51 PM,50.0,35.1,57,29.90,10.0,SW,8.1,-,N/A,,Partly Cloudy,230,2013-02-23 18:51:00
2:51 PM,51.1,33.1,50,29.88,10.0,West,9.2,-,N/A,,Clear,260,2013-02-23 19:51:00
3:51 PM,50.0,30.9,48,29.88,10.0,WSW,9.2,36.8,N/A,,Clear,240,2013-02-23 20:51:00
4:51 PM,50.0,30.0,46,29.88,10.0,SW,3.5,-,N/A,,Clear,230,2013-02-23 21:51:00
5:51 PM,48.0,30.0,50,29.88,10.0,SW,4.6,-,N/A,,Clear,230,2013-02-23 22:51:00
6:51 PM,45.0,30.0,56,29.88,10.0,WNW,3.5,-,N/A,,Clear,290,2013-02-23 23:51:00
7:51 PM,44.1,27.0,51,29.88,10.0,NW,5.8,-,N/A,,Clear,320,2013-02-24 00:51:00
8:51 PM,42.1,27.0,55,29.89,10.0,WNW,4.6,-,N/A,,Clear,300,2013-02-24 01:51:00
9:51 PM,41.0,27.0,57,29.89,10.0,NNW,3.5,-,N/A,,Clear,330,2013-02-24 02:51:00
10:51 PM,37.9,28.0,68,29.91,10.0,WNW,4.6,-,N/A,,Overcast,290,2013-02-24 03:51:00
11:51 PM,36.0,28.0,73,29.91,10.0,North,3.5,-,N/A,,Partly Cloudy,10,2013-02-24 04:51:00